Time,TemperatureF,DewpointF,PressureIn,WindDirection,WindDirectionDegrees,WindSpeedMPH,WindSpeedGustMPH,Humidity,HourlyPrecipIn,Conditions,Clouds,dailyrainin,SoftwareType,DateUTC
2013-05-26 00:01:00,39.0,35.7,30.23,NNW,338,0.0,0.0,88,0.00,SCT,,0.00,WeatherDisplay:10.37,2013-05-26 04:01:00,
2013-05-26 00:02:00,39.0,35.7,30.23,NNW,338,0.0,0.0,88,0.00,SCT,,0.00,WeatherDisplay:10.37,2013-05-26 04:02:00,
2013-05-26 00:03:00,39.0,35.7,30.23,NNW,338,0.0,0.0,88,0.00,SCT,,0.00,WeatherDisplay:10.37,2013-05-26 04:03:00,
2013-05-26 00:04:00,39.0,35.7,30.23,NNW,338,0.0,0.0,88,0.00,SCT,,0.00,WeatherDisplay:10.37,2013-05-26 04:04:00,
2013-05-26 00:09:00,38.8,36.1,30.23,NNW,338,0.0,0.0,90,0.00,SCT,,0.00,WeatherDisplay:10.37,2013-05-26 04:09:00,
2013-05-26 00:13:00,38.8,36.4,30.23,NNW,338,0.0,0.0,91,0.00,SCT,,0.00,WeatherDisplay:10.37,2013-05-26 04:13:00,
2013-05-26 00:18:00,38.7,36.3,30.23,NNW,338,0.0,0.0,91,0.00,SCT,,0.00,WeatherDisplay:10.37,2013-05-26 04:18:00,
2013-05-26 00:23:00,38.1,36.0,30.23,NNW,338,0.0,0.0,92,0.00,SCT,,0.00,WeatherDisplay:10.37,2013-05-26 04:23:00,
2013-05-26 00:28:00,37.9,35.8,30.23,NNW,338,0.0,0.0,92,0.00,SCT,,0.00,WeatherDisplay:10.37,2013-05-26 04:28:00,
2013-05-26 00:33:00,37.8,36.0,30.23,NNW,338,0.0,0.0,93,0.00,SCT,,0.00,WeatherDisplay:10.37,2013-05-26 04:33:00,
2013-05-26 00:38:00,37.8,36.0,30.23,NNW,338,0.0,0.0,93,0.00,SCT,,0.00,WeatherDisplay:10.37,2013-05-26 04:38:00,
2013-05-26 00:43:00,37.4,35.6,30.23,NNW,338,0.0,0.0,93,0.00,SCT,,0.00,WeatherDisplay:10.37,2013-05-26 04:43:00,
2013-05-26 00:48:00,37.0,35.4,30.23,NNW,338,0.0,0.0,94,0.00,SCT,,0.00,WeatherDisplay:10.37,2013-05-26 04:48:00,
2013-05-26 00:53:00,37.0,35.7,30.23,NNW,338,0.0,0.0,95,0.00,SCT,,0.00,WeatherDisplay:10.37,2013-05-26 04:53:00,
2013-05-26 00:58:00,37.0,35.7,30.23,NNW,338,0.0,0.0,95,0.00,SCT,,0.00,WeatherDisplay:10.37,2013-05-26 04:58:00,
2013-05-26 01:03:00,36.9,35.6,30.24,NNW,338,0.0,0.0,95,0.00,SCT,,0.00,WeatherDisplay:10.37,2013-05-26 05:03:00,
2013-05-26 01:08:00,36.7,35.7,30.24,NNW,338,0.0,0.0,96,0.00,SCT,,0.00,WeatherDisplay:10.37,2013-05-26 05:08:00,
2013-05-26 01:13:00,36.7,35.7,30.24,NNW,338,0.0,0.0,96,0.00,SCT,,0.00,WeatherDisplay:10.37,2013-05-26 05:13:00,
2013-05-26 01:18:00,36.5,35.5,30.24,NNW,338,0.0,0.0,96,0.00,SCT,,0.00,WeatherDisplay:10.37,2013-05-26 05:18:00,
2013-05-26 01:23:00,36.3,35.3,30.24,NNW,338,0.0,0.0,96,0.00,SCT,,0.00,WeatherDisplay:10.37,2013-05-26 05:23:00,
2013-05-26 01:28:00,36.1,35.3,30.23,NNW,338,0.0,0.0,97,0.00,SCT,,0.00,WeatherDisplay:10.37,2013-05-26 05:28:00,
2013-05-26 01:33:00,36.3,35.5,30.23,NNW,338,0.0,0.0,97,0.00,SCT,,0.00,WeatherDisplay:10.37,2013-05-26 05:33:00,
2013-05-26 01:38:00,36.0,35.2,30.23,NNW,338,0.0,0.0,97,0.00,SCT,,0.00,WeatherDisplay:10.37,2013-05-26 05:38:00,
2013-05-26 01:43:00,35.8,35.0,30.23,NNW,338,0.0,0.0,97,0.00,SCT,,0.00,WeatherDisplay:10.37,2013-05-26 05:43:00,
2013-05-26 01:48:00,35.8,35.0,30.23,NNW,338,0.0,0.0,97,0.00,SCT,,0.00,WeatherDisplay:10.37,2013-05-26 05:48:00,
2013-05-26 01:53:00,35.8,35.0,30.23,NNW,338,0.0,0.0,97,0.00,SCT,,0.00,WeatherDisplay:10.37,2013-05-26 05:53:00,
2013-05-26 01:58:00,35.6,34.8,30.23,NNW,338,0.0,0.0,97,0.00,SCT,,0.00,WeatherDisplay:10.37,2013-05-26 05:58:00,
2013-05-26 02:03:00,35.6,34.8,30.23,NNW,338,0.0,0.0,97,0.00,SCT,,0.00,WeatherDisplay:10.37,2013-05-26 06:03:00,
2013-05-26 02:08:00,35.1,34.1,30.23,NNW,338,0.0,0.0,96,0.00,SCT,,0.00,WeatherDisplay:10.37,2013-05-26 06:08:00,
2013-05-26 02:13:00,35.4,34.9,30.23,NNW,338,0.0,0.0,98,0.00,SCT,,0.00,WeatherDisplay:10.37,2013-05-26 06:13:00,
2013-05-26 02:18:00,35.2,34.7,30.23,NNW,338,0.0,0.0,98,0.00,SCT,,0.00,WeatherDisplay:10.37,2013-05-26 06:18:00,
2013-05-26 02:23:00,35.2,34.7,30.23,NNW,338,0.0,0.0,98,0.00,SCT,,0.00,WeatherDisplay:10.37,2013-05-26 06:23:00,
2013-05-26 02:28:00,35.2,34.9,30.23,NNW,338,0.0,0.0,99,0.00,SCT,,0.00,WeatherDisplay:10.37,2013-05-26 06:28:00,
2013-05-26 02:33:00,35.1,34.8,30.23,NNW,338,0.0,0.0,99,0.00,SCT,,0.00,WeatherDisplay:10.37,2013-05-26 06:33:00,
2013-05-26 02:38:00,35.1,34.8,30.23,NNW,338,0.0,0.0,99,0.00,SCT,,0.00,WeatherDisplay:10.37,2013-05-26 06:38:00,
2013-05-26 02:43:00,34.9,34.6,30.23,NNW,338,0.0,0.0,99,0.00,SCT,,0.00,WeatherDisplay:10.37,2013-05-26 06:43:00,
2013-05-26 02:48:00,34.9,34.6,30.23,NNW,338,0.0,0.0,99,0.00,SCT,,0.00,WeatherDisplay:10.37,2013-05-26 06:48:00,
2013-05-26 02:53:00,34.7,34.4,30.23,NNW,338,0.0,0.0,99,0.00,SCT,,0.00,WeatherDisplay:10.37,2013-05-26 06:53:00,
2013-05-26 02:58:00,34.9,34.6,30.23,NNW,338,0.0,0.0,99,0.00,SCT,,0.00,WeatherDisplay:10.37,2013-05-26 06:58:00,
2013-05-26 03:03:00,34.7,34.4,30.23,NNW,338,0.0,0.0,99,0.00,SCT,,0.00,WeatherDisplay:10.37,2013-05-26 07:03:00,
2013-05-26 03:08:00,34.2,33.9,30.23,NNW,338,0.0,0.0,99,0.00,SCT,,0.00,WeatherDisplay:10.37,2013-05-26 07:08:00,
2013-05-26 03:13:00,34.3,33.8,30.23,NNW,338,0.0,0.0,98,0.00,SCT,,0.00,WeatherDisplay:10.37,2013-05-26 07:13:00,
2013-05-26 03:18:00,34.3,33.8,30.24,NNW,338,0.0,0.0,98,0.00,SCT,,0.00,WeatherDisplay:10.37,2013-05-26 07:18:00,
2013-05-26 03:23:00,34.2,33.9,30.24,NNW,338,0.0,0.0,99,0.00,SCT,,0.00,WeatherDisplay:10.37,2013-05-26 07:23:00,
2013-05-26 03:28:00,34.0,33.7,30.23,NNW,338,0.0,0.0,99,0.00,SCT,,0.00,WeatherDisplay:10.37,2013-05-26 07:28:00,
2013-05-26 03:33:00,33.8,33.5,30.23,NNW,338,0.0,0.0,99,0.00,SCT,,0.00,WeatherDisplay:10.37,2013-05-26 07:33:00,
2013-05-26 03:38:00,34.2,34.2,30.23,NNW,338,0.0,0.0,100,0.00,SCT,,0.00,WeatherDisplay:10.37,2013-05-26 07:38:00,
2013-05-26 03:43:00,33.6,33.6,30.23,NNW,338,0.0,0.0,100,0.00,SCT,,0.00,WeatherDisplay:10.37,2013-05-26 07:43:00,
2013-05-26 03:48:00,34.0,34.0,30.23,NNW,338,0.0,0.0,100,0.00,SCT,,0.00,WeatherDisplay:10.37,2013-05-26 07:48:00,
2013-05-26 03:53:00,33.6,33.6,30.23,NNW,338,0.0,0.0,100,0.00,SCT,,0.00,WeatherDisplay:10.37,2013-05-26 07:53:00,
2013-05-26 03:58:00,33.8,33.8,30.23,NNW,338,0.0,0.0,100,0.00,SCT,,0.00,WeatherDisplay:10.37,2013-05-26 07:58:00,
2013-05-26 04:03:00,33.4,33.4,30.23,NNW,338,0.0,0.0,100,0.00,SCT,,0.00,WeatherDisplay:10.37,2013-05-26 08:03:00,
2013-05-26 04:08:00,33.6,33.6,30.23,NNW,338,0.0,0.0,100,0.00,SCT,,0.00,WeatherDisplay:10.37,2013-05-26 08:08:00,
2013-05-26 04:13:00,33.4,33.4,30.23,NNW,338,0.0,0.0,100,0.00,SCT,,0.00,WeatherDisplay:10.37,2013-05-26 08:13:00,
2013-05-26 04:18:00,33.3,33.3,30.23,NNW,338,0.0,0.0,100,0.00,SCT,,0.00,WeatherDisplay:10.37,2013-05-26 08:18:00,
2013-05-26 04:23:00,33.3,33.3,30.23,NNW,338,0.0,0.0,100,0.00,SCT,,0.00,WeatherDisplay:10.37,2013-05-26 08:23:00,
2013-05-26 04:28:00,33.3,33.3,30.23,NNW,338,0.0,0.0,100,0.00,SCT,,0.00,WeatherDisplay:10.37,2013-05-26 08:28:00,
2013-05-26 04:33:00,33.3,33.3,30.23,NNW,338,0.0,0.0,100,0.00,SCT,,0.00,WeatherDisplay:10.37,2013-05-26 08:33:00,
2013-05-26 04:38:00,32.9,32.9,30.23,NNW,338,0.0,0.0,100,0.00,SCT,,0.00,WeatherDisplay:10.37,2013-05-26 08:38:00,
2013-05-26 04:43:00,32.9,32.9,30.23,NNW,338,0.0,0.0,100,0.00,SCT,,0.00,WeatherDisplay:10.37,2013-05-26 08:43:00,
2013-05-26 04:48:00,32.9,32.9,30.23,NNW,338,0.0,0.0,100,0.00,SCT,,0.00,WeatherDisplay:10.37,2013-05-26 08:48:00,
2013-05-26 04:53:00,33.3,33.3,30.24,NNW,338,0.0,0.0,100,0.00,SCT,,0.00,WeatherDisplay:10.37,2013-05-26 08:53:00,
2013-05-26 04:58:00,32.9,32.9,30.24,NNW,338,0.0,0.0,100,0.00,SCT,,0.00,WeatherDisplay:10.37,2013-05-26 08:58:00,
2013-05-26 05:03:00,32.2,32.2,30.24,NNW,338,0.0,0.0,100,0.00,SCT,,0.00,WeatherDisplay:10.37,2013-05-26 09:03:00,
2013-05-26 05:08:00,32.4,32.4,30.24,North,360,0.0,0.0,100,0.00,SCT,,0.00,WeatherDisplay:10.37,2013-05-26 09:08:00,
2013-05-26 05:13:00,32.7,32.7,30.24,North,360,0.0,0.0,100,0.00,SCT,,0.00,WeatherDisplay:10.37,2013-05-26 09:13:00,
2013-05-26 05:18:00,32.5,32.5,30.24,North,360,0.0,0.0,100,0.00,SCT,,0.00,WeatherDisplay:10.37,2013-05-26 09:18:00,
2013-05-26 05:23:00,32.5,32.5,30.24,North,360,0.0,0.0,100,0.00,SCT,,0.00,WeatherDisplay:10.37,2013-05-26 09:23:00,
2013-05-26 05:28:00,32.5,32.5,30.24,North,360,0.0,0.0,100,0.00,SCT,,0.00,WeatherDisplay:10.37,2013-05-26 09:28:00,
2013-05-26 05:33:00,32.5,32.5,30.24,North,360,0.0,0.0,100,0.00,SCT,,0.00,WeatherDisplay:10.37,2013-05-26 09:33:00,
2013-05-26 05:38:00,32.4,32.4,30.25,North,360,0.0,0.0,100,0.00,SCT,,0.00,WeatherDisplay:10.37,2013-05-26 09:38:00,
2013-05-26 05:43:00,32.4,32.4,30.25,North,360,0.0,0.0,100,0.00,SCT,,0.00,WeatherDisplay:10.37,2013-05-26 09:43:00,
2013-05-26 05:48:00,32.4,32.4,30.25,North,360,0.0,0.0,100,0.00,SCT,,0.00,WeatherDisplay:10.37,2013-05-26 09:48:00,
2013-05-26 05:53:00,32.4,32.4,30.25,North,360,0.0,0.0,100,0.00,SCT,,0.00,WeatherDisplay:10.37,2013-05-26 09:53:00,
2013-05-26 05:58:00,32.4,32.4,30.25,North,360,0.0,0.0,100,0.00,SCT,,0.00,WeatherDisplay:10.37,2013-05-26 09:58:00,
2013-05-26 06:03:00,32.4,32.4,30.25,North,360,0.0,0.0,100,0.00,SCT,,0.00,WeatherDisplay:10.37,2013-05-26 10:03:00,
2013-05-26 06:08:00,32.4,32.4,30.25,North,360,0.0,0.0,100,0.00,SCT,,0.00,WeatherDisplay:10.37,2013-05-26 10:08:00,
2013-05-26 06:13:00,32.4,32.4,30.25,North,360,0.0,0.0,100,0.00,SCT,,0.00,WeatherDisplay:10.37,2013-05-26 10:13:00,
2013-05-26 06:18:00,32.4,32.4,30.25,North,360,0.0,0.0,100,0.00,SCT,,0.00,WeatherDisplay:10.37,2013-05-26 10:18:00,
2013-05-26 06:23:00,32.2,32.2,30.25,North,360,0.0,0.0,100,0.00,SCT,,0.00,WeatherDisplay:10.37,2013-05-26 10:23:00,
2013-05-26 06:28:00,32.2,32.2,30.25,North,360,0.0,0.0,100,0.00,SCT,,0.00,WeatherDisplay:10.37,2013-05-26 10:28:00,
2013-05-26 06:33:00,32.4,32.4,30.25,North,360,0.0,0.0,100,0.00,SKC,,0.00,WeatherDisplay:10.37,2013-05-26 10:33:00,
2013-05-26 06:38:00,32.7,32.7,30.26,North,360,0.0,0.0,100,0.00,SKC,,0.00,WeatherDisplay:10.37,2013-05-26 10:38:00,
2013-05-26 06:43:00,32.9,32.9,30.26,North,360,0.0,0.0,100,0.00,SKC,,0.00,WeatherDisplay:10.37,2013-05-26 10:43:00,
2013-05-26 06:48:00,32.9,32.9,30.26,North,360,0.0,0.0,100,0.00,SKC,,0.00,WeatherDisplay:10.37,2013-05-26 10:48:00,
2013-05-26 06:53:00,33.6,33.6,30.27,North,360,0.0,0.0,100,0.00,SKC,,0.00,WeatherDisplay:10.37,2013-05-26 10:53:00,
2013-05-26 06:58:00,34.7,34.7,30.27,North,360,0.5,1.9,100,0.00,SKC,,0.00,WeatherDisplay:10.37,2013-05-26 10:58:00,
2013-05-26 07:03:00,36.1,36.1,30.27,North,360,0.0,0.0,100,0.00,SKC,,0.00,WeatherDisplay:10.37,2013-05-26 11:03:00,
2013-05-26 07:08:00,37.4,36.6,30.27,North,360,2.7,2.7,97,0.00,SKC,,0.00,WeatherDisplay:10.37,2013-05-26 11:08:00,
2013-05-26 07:13:00,38.1,36.5,30.27,South,180,2.7,4.6,94,0.00,SKC,,0.00,WeatherDisplay:10.37,2013-05-26 11:13:00,
2013-05-26 07:18:00,38.5,36.7,30.28,South,180,1.3,3.5,93,0.00,SKC,,0.00,WeatherDisplay:10.37,2013-05-26 11:18:00,
2013-05-26 07:23:00,39.0,37.1,30.28,South,180,1.4,3.6,93,0.00,SKC,,0.00,WeatherDisplay:10.37,2013-05-26 11:23:00,
2013-05-26 07:28:00,39.6,37.7,30.27,South,180,3.3,4.6,93,0.00,SKC,,0.00,WeatherDisplay:10.37,2013-05-26 11:28:00,
2013-05-26 07:33:00,40.1,38.0,30.27,South,180,0.7,4.6,92,0.00,SKC,,0.00,WeatherDisplay:10.37,2013-05-26 11:33:00,
2013-05-26 07:38:00,41.9,38.6,30.28,South,180,3.5,5.8,88,0.00,SKC,,0.00,WeatherDisplay:10.37,2013-05-26 11:38:00,
2013-05-26 07:43:00,43.0,38.5,30.28,South,180,3.0,3.6,84,0.00,SKC,,0.00,WeatherDisplay:10.37,2013-05-26 11:43:00,
2013-05-26 07:48:00,44.8,39.3,30.28,South,180,3.7,4.6,81,0.00,SKC,,0.00,WeatherDisplay:10.37,2013-05-26 11:48:00,
2013-05-26 07:53:00,45.7,39.6,30.28,South,180,0.3,2.3,79,0.00,SKC,,0.00,WeatherDisplay:10.37,2013-05-26 11:53:00,
2013-05-26 07:58:00,48.6,39.6,30.28,South,180,4.5,5.8,71,0.00,SKC,,0.00,WeatherDisplay:10.37,2013-05-26 11:58:00,
2013-05-26 08:03:00,49.1,38.6,30.28,South,180,3.4,5.8,67,0.00,SKC,,0.00,WeatherDisplay:10.37,2013-05-26 12:03:00,
2013-05-26 08:08:00,48.7,39.4,30.28,South,180,3.7,5.3,70,0.00,SKC,,0.00,WeatherDisplay:10.37,2013-05-26 12:08:00,
2013-05-26 08:13:00,48.7,38.6,30.28,WSW,248,2.7,3.6,68,0.00,SKC,,0.00,WeatherDisplay:10.37,2013-05-26 12:13:00,
2013-05-26 08:18:00,49.1,37.8,30.28,SW,225,3.1,4.6,65,0.00,SKC,,0.00,WeatherDisplay:10.37,2013-05-26 12:18:00,
2013-05-26 08:23:00,52.7,37.4,30.28,NE,45,3.4,4.4,56,0.00,SKC,,0.00,WeatherDisplay:10.37,2013-05-26 12:23:00,
2013-05-26 08:28:00,50.7,36.9,30.28,SSE,158,3.6,4.6,59,0.00,SKC,,0.00,WeatherDisplay:10.37,2013-05-26 12:28:00,
2013-05-26 08:33:00,55.0,37.7,30.28,SE,135,4.4,4.6,52,0.00,SKC,,0.00,WeatherDisplay:10.37,2013-05-26 12:33:00,
2013-05-26 08:38:00,55.4,38.1,30.28,East,90,2.1,3.6,52,0.00,SKC,,0.00,WeatherDisplay:10.37,2013-05-26 12:38:00,
2013-05-26 08:43:00,54.0,38.2,30.28,WSW,248,5.0,7.0,55,0.00,SKC,,0.00,WeatherDisplay:10.37,2013-05-26 12:43:00,
2013-05-26 08:48:00,53.6,37.8,30.28,West,270,5.3,8.7,55,0.00,SKC,,0.00,WeatherDisplay:10.37,2013-05-26 12:48:00,
2013-05-26 08:53:00,56.1,38.7,30.28,NE,45,3.2,4.6,52,0.00,SKC,,0.00,WeatherDisplay:10.37,2013-05-26 12:53:00,
2013-05-26 08:58:00,57.2,39.2,30.28,WSW,248,3.7,7.0,51,0.00,SKC,,0.00,WeatherDisplay:10.37,2013-05-26 12:58:00,
2013-05-26 09:03:00,53.6,39.2,30.28,West,270,3.7,5.8,58,0.00,SKC,,0.00,WeatherDisplay:10.37,2013-05-26 13:03:00,
2013-05-26 09:08:00,57.0,39.0,30.28,ESE,112,2.5,4.6,51,0.00,SKC,,0.00,WeatherDisplay:10.37,2013-05-26 13:08:00,
2013-05-26 09:13:00,56.7,39.3,30.28,SSE,158,4.4,5.8,52,0.00,SKC,,0.00,WeatherDisplay:10.37,2013-05-26 13:13:00,
2013-05-26 09:18:00,57.7,38.7,30.28,SSW,202,1.7,9.2,49,0.00,SKC,,0.00,WeatherDisplay:10.37,2013-05-26 13:18:00,
2013-05-26 09:23:00,54.9,39.0,30.28,South,180,3.4,4.6,55,0.00,SKC,,0.00,WeatherDisplay:10.37,2013-05-26 13:23:00,
2013-05-26 09:28:00,56.3,38.4,30.28,West,270,3.2,3.6,51,0.00,SKC,,0.00,WeatherDisplay:10.37,2013-05-26 13:28:00,
2013-05-26 09:33:00,50.5,38.8,30.28,SSE,158,4.5,5.8,64,0.00,SKC,,0.00,WeatherDisplay:10.37,2013-05-26 13:33:00,
2013-05-26 09:38:00,50.5,38.0,30.28,ESE,112,5.0,9.2,62,0.00,SKC,,0.00,WeatherDisplay:10.37,2013-05-26 13:38:00,
2013-05-26 09:43:00,51.4,39.2,30.27,SW,225,5.3,6.1,63,0.00,SKC,,0.00,WeatherDisplay:10.37,2013-05-26 13:43:00,
2013-05-26 09:48:00,52.5,39.0,30.27,SSE,158,4.8,6.1,60,0.00,SKC,,0.00,WeatherDisplay:10.37,2013-05-26 13:48:00,
2013-05-26 09:53:00,53.8,39.4,30.27,ESE,112,5.2,7.0,58,0.00,SKC,,0.00,WeatherDisplay:10.37,2013-05-26 13:53:00,
2013-05-26 09:59:00,53.6,39.2,30.27,NNE,22,4.8,6.1,58,0.00,SKC,,0.00,WeatherDisplay:10.37,2013-05-26 13:59:00,
2013-05-26 10:04:00,53.4,39.9,30.27,South,180,4.8,6.1,60,0.00,SKC,,0.00,WeatherDisplay:10.37,2013-05-26 14:04:00,
2013-05-26 10:09:00,53.2,38.8,30.27,SSE,158,4.6,5.8,58,0.00,SKC,,0.00,WeatherDisplay:10.37,2013-05-26 14:09:00,
2013-05-26 10:14:00,53.2,38.4,30.27,South,180,5.1,7.0,57,0.00,SKC,,0.00,WeatherDisplay:10.37,2013-05-26 14:14:00,
2013-05-26 10:19:00,54.7,38.4,30.27,NNW,338,4.3,5.8,54,0.00,SKC,,0.00,WeatherDisplay:10.37,2013-05-26 14:19:00,
2013-05-26 10:24:00,54.5,38.2,30.27,WSW,248,3.6,5.8,54,0.00,SKC,,0.00,WeatherDisplay:10.37,2013-05-26 14:24:00,
2013-05-26 10:29:00,54.9,38.6,30.27,South,180,5.8,10.4,54,0.00,SKC,,0.00,WeatherDisplay:10.37,2013-05-26 14:29:00,
2013-05-26 10:34:00,55.8,38.9,30.27,SSE,158,5.8,7.0,53,0.00,SKC,,0.00,WeatherDisplay:10.37,2013-05-26 14:34:00,
2013-05-26 10:39:00,56.5,39.6,30.27,West,270,5.0,7.0,53,0.00,SKC,,0.00,WeatherDisplay:10.37,2013-05-26 14:39:00,
2013-05-26 10:44:00,55.8,37.9,30.27,SSW,202,5.0,9.2,51,0.00,SKC,,0.00,WeatherDisplay:10.37,2013-05-26 14:44:00,
2013-05-26 10:49:00,56.1,38.7,30.27,SSE,158,3.0,5.8,52,0.00,SKC,,0.00,WeatherDisplay:10.37,2013-05-26 14:49:00,
2013-05-26 10:54:00,57.2,37.7,30.27,WSW,248,5.0,5.8,48,0.00,SKC,,0.00,WeatherDisplay:10.37,2013-05-26 14:54:00,
2013-05-26 10:59:00,57.2,38.2,30.27,NE,45,5.5,6.1,49,0.00,SKC,,0.00,WeatherDisplay:10.37,2013-05-26 14:59:00,
2013-05-26 11:04:00,58.1,38.5,30.27,WSW,248,6.3,8.1,48,0.00,SKC,,0.00,WeatherDisplay:10.37,2013-05-26 15:04:00,
2013-05-26 11:09:00,58.1,38.0,30.27,West,270,6.9,9.2,47,0.00,SKC,,0.00,WeatherDisplay:10.37,2013-05-26 15:09:00,
2013-05-26 11:14:00,56.8,35.7,30.27,NNW,338,3.9,10.4,45,0.00,SKC,,0.00,WeatherDisplay:10.37,2013-05-26 15:14:00,
2013-05-26 11:19:00,57.9,37.2,30.27,SSW,202,4.4,6.9,46,0.00,SKC,,0.00,WeatherDisplay:10.37,2013-05-26 15:19:00,
2013-05-26 11:24:00,57.9,36.7,30.27,NNW,338,5.8,8.1,45,0.00,SKC,,0.00,WeatherDisplay:10.37,2013-05-26 15:24:00,
2013-05-26 11:29:00,59.2,37.3,30.27,WSW,248,5.5,7.8,44,0.00,SKC,,0.00,WeatherDisplay:10.37,2013-05-26 15:29:00,
2013-05-26 11:34:00,58.8,37.5,30.27,ENE,68,6.1,11.2,45,0.00,SKC,,0.00,WeatherDisplay:10.37,2013-05-26 15:34:00,
2013-05-26 11:39:00,58.6,36.7,30.27,West,270,10.5,15.4,44,0.00,SKC,,0.00,WeatherDisplay:10.37,2013-05-26 15:39:00,
2013-05-26 11:44:00,59.0,37.7,30.27,NE,45,7.5,10.4,45,0.00,SKC,,0.00,WeatherDisplay:10.37,2013-05-26 15:44:00,
2013-05-26 11:49:00,59.0,36.5,30.27,SSE,158,6.3,9.2,43,0.00,SKC,,0.00,WeatherDisplay:10.37,2013-05-26 15:49:00,
2013-05-26 11:54:00,59.5,37.6,30.27,WSW,248,6.8,10.4,44,0.00,SKC,,0.00,WeatherDisplay:10.37,2013-05-26 15:54:00,
2013-05-26 11:59:00,60.3,36.5,30.27,East,90,7.5,9.2,41,0.00,SKC,,0.00,WeatherDisplay:10.37,2013-05-26 15:59:00,
2013-05-26 12:04:00,59.9,36.7,30.27,ENE,68,8.0,11.5,42,0.00,SKC,,0.00,WeatherDisplay:10.37,2013-05-26 16:04:00,
2013-05-26 12:09:00,60.1,38.7,30.27,NW,315,4.4,11.5,45,0.00,SKC,,0.00,WeatherDisplay:10.37,2013-05-26 16:09:00,
2013-05-26 12:14:00,60.6,39.1,30.26,South,180,4.8,6.9,45,0.00,SKC,,0.00,WeatherDisplay:10.37,2013-05-26 16:14:00,
2013-05-26 12:19:00,61.2,39.1,30.26,WNW,292,4.3,9.2,44,0.00,SKC,,0.00,WeatherDisplay:10.37,2013-05-26 16:19:00,
2013-05-26 12:24:00,60.4,37.8,30.26,NE,45,8.7,12.1,43,0.00,SKC,,0.00,WeatherDisplay:10.37,2013-05-26 16:24:00,
2013-05-26 12:29:00,60.1,36.3,30.26,South,180,6.8,10.4,41,0.00,SKC,,0.00,WeatherDisplay:10.37,2013-05-26 16:29:00,
2013-05-26 12:34:00,61.0,35.8,30.26,SSW,202,8.9,11.2,39,0.00,SKC,,0.00,WeatherDisplay:10.37,2013-05-26 16:34:00,
2013-05-26 12:39:00,61.7,36.5,30.26,NNE,22,14.2,18.4,39,0.00,SKC,,0.00,WeatherDisplay:10.37,2013-05-26 16:39:00,
2013-05-26 12:44:00,62.2,37.6,30.26,NE,45,6.0,9.2,40,0.00,SKC,,0.00,WeatherDisplay:10.37,2013-05-26 16:44:00,
2013-05-26 12:49:00,63.0,38.9,30.26,ENE,68,4.7,6.1,41,0.00,SKC,,0.00,WeatherDisplay:10.37,2013-05-26 16:49:00,
2013-05-26 12:54:00,62.6,35.3,30.26,ENE,68,9.6,16.3,36,0.00,SKC,,0.00,WeatherDisplay:10.37,2013-05-26 16:54:00,
2013-05-26 12:59:00,61.7,37.1,30.26,SW,225,4.8,8.1,40,0.00,SKC,,0.00,WeatherDisplay:10.37,2013-05-26 16:59:00,
2013-05-26 13:04:00,62.6,37.3,30.25,SW,225,5.3,7.0,39,0.00,FEW,,0.00,WeatherDisplay:10.37,2013-05-26 17:04:00,
2013-05-26 13:09:00,62.8,35.4,30.25,West,270,6.6,11.2,36,0.00,FEW,,0.00,WeatherDisplay:10.37,2013-05-26 17:09:00,
2013-05-26 13:14:00,62.4,36.4,30.25,ENE,68,4.3,11.5,38,0.00,FEW,,0.00,WeatherDisplay:10.37,2013-05-26 17:14:00,
2013-05-26 13:19:00,63.0,37.0,30.25,North,360,7.3,10.4,38,0.00,FEW,,0.00,WeatherDisplay:10.37,2013-05-26 17:19:00,
2013-05-26 13:24:00,63.5,37.4,30.25,NNE,22,6.0,8.1,38,0.00,FEW,,0.00,WeatherDisplay:10.37,2013-05-26 17:24:00,
2013-05-26 13:29:00,64.0,36.5,30.25,North,360,11.4,16.3,36,0.00,FEW,,0.00,WeatherDisplay:10.37,2013-05-26 17:29:00,
2013-05-26 13:34:00,63.3,36.6,30.25,SW,225,11.5,12.1,37,0.00,FEW,,0.00,WeatherDisplay:10.37,2013-05-26 17:34:00,
2013-05-26 13:39:00,62.8,36.1,30.25,WNW,292,3.7,11.5,37,0.00,FEW,,0.00,WeatherDisplay:10.37,2013-05-26 17:39:00,
2013-05-26 13:44:00,63.7,35.5,30.25,West,270,10.7,12.1,35,0.00,FEW,,0.00,WeatherDisplay:10.37,2013-05-26 17:44:00,
2013-05-26 13:49:00,64.4,37.5,30.25,WSW,248,3.3,7.0,37,0.00,FEW,,0.00,WeatherDisplay:10.37,2013-05-26 17:49:00,
2013-05-26 13:54:00,64.2,37.4,30.24,West,270,9.3,15.4,37,0.00,FEW,,0.00,WeatherDisplay:10.37,2013-05-26 17:54:00,
2013-05-26 13:59:00,63.5,36.7,30.24,SW,225,7.8,12.7,37,0.00,FEW,,0.00,WeatherDisplay:10.37,2013-05-26 17:59:00,
2013-05-26 14:04:00,63.7,38.3,30.24,SW,225,6.3,9.5,39,0.00,FEW,,0.00,WeatherDisplay:10.37,2013-05-26 18:04:00,
2013-05-26 14:09:00,64.2,38.0,30.24,West,270,6.1,11.5,38,0.00,FEW,,0.00,WeatherDisplay:10.37,2013-05-26 18:09:00,
2013-05-26 14:14:00,64.6,37.7,30.24,West,270,8.4,11.5,37,0.00,FEW,,0.00,WeatherDisplay:10.37,2013-05-26 18:14:00,
2013-05-26 14:19:00,64.9,37.3,30.24,North,360,5.7,8.1,36,0.00,FEW,,0.00,WeatherDisplay:10.37,2013-05-26 18:19:00,
2013-05-26 14:24:00,65.5,39.2,30.24,North,360,5.3,8.7,38,0.00,FEW,,0.00,WeatherDisplay:10.37,2013-05-26 18:24:00,
2013-05-26 14:29:00,65.5,37.8,30.24,West,270,10.5,15.0,36,0.00,FEW,,0.00,WeatherDisplay:10.37,2013-05-26 18:29:00,
2013-05-26 14:34:00,64.8,38.6,30.24,ENE,68,7.2,10.4,38,0.00,FEW,,0.00,WeatherDisplay:10.37,2013-05-26 18:34:00,
2013-05-26 14:39:00,64.2,38.0,30.24,North,360,6.4,9.2,38,0.00,FEW,,0.00,WeatherDisplay:10.37,2013-05-26 18:39:00,
2013-05-26 14:44:00,64.8,38.6,30.24,SW,225,5.3,9.2,38,0.00,FEW,,0.00,WeatherDisplay:10.37,2013-05-26 18:44:00,
2013-05-26 14:49:00,65.3,36.9,30.24,NNE,22,6.1,10.4,35,0.00,FEW,,0.00,WeatherDisplay:10.37,2013-05-26 18:49:00,
2013-05-26 14:54:00,65.3,36.9,30.24,SW,225,5.5,11.5,35,0.00,FEW,,0.00,WeatherDisplay:10.37,2013-05-26 18:54:00,
2013-05-26 14:59:00,66.7,38.2,30.24,SSW,202,11.8,13.8,35,0.00,FEW,,0.00,WeatherDisplay:10.37,2013-05-26 18:59:00,
2013-05-26 15:04:00,65.8,36.6,30.23,WNW,292,4.1,8.1,34,0.00,SCT,,0.00,WeatherDisplay:10.37,2013-05-26 19:04:00,
2013-05-26 15:09:00,66.7,39.6,30.23,North,360,4.7,10.4,37,0.00,SCT,,0.00,WeatherDisplay:10.37,2013-05-26 19:09:00,
2013-05-26 15:14:00,66.4,36.4,30.23,WSW,248,7.2,11.5,33,0.00,SCT,,0.00,WeatherDisplay:10.37,2013-05-26 19:14:00,
2013-05-26 15:19:00,65.7,37.3,30.23,NE,45,7.4,11.5,35,0.00,SCT,,0.00,WeatherDisplay:10.37,2013-05-26 19:19:00,
2013-05-26 15:24:00,65.8,38.1,30.23,SSW,202,6.4,9.2,36,0.00,SCT,,0.00,WeatherDisplay:10.37,2013-05-26 19:24:00,
2013-05-26 15:29:00,66.2,38.4,30.22,NW,315,8.8,10.4,36,0.00,SCT,,0.00,WeatherDisplay:10.37,2013-05-26 19:29:00,
2013-05-26 15:34:00,66.0,37.5,30.22,WSW,248,6.0,11.2,35,0.00,SCT,,0.00,WeatherDisplay:10.37,2013-05-26 19:34:00,
2013-05-26 15:39:00,66.9,38.3,30.22,West,270,8.2,18.0,35,0.00,SCT,,0.00,WeatherDisplay:10.37,2013-05-26 19:39:00,
2013-05-26 15:44:00,66.4,37.9,30.22,SSW,202,7.0,11.5,35,0.00,SCT,,0.00,WeatherDisplay:10.37,2013-05-26 19:44:00,
2013-05-26 15:49:00,66.2,37.0,30.22,WSW,248,8.1,9.5,34,0.00,SCT,,0.00,WeatherDisplay:10.37,2013-05-26 19:49:00,
2013-05-26 15:54:00,66.2,38.4,30.22,NNW,338,4.7,8.1,36,0.00,SCT,,0.00,WeatherDisplay:10.37,2013-05-26 19:54:00,
2013-05-26 15:59:00,67.1,38.5,30.22,WSW,248,8.7,17.3,35,0.00,SCT,,0.00,WeatherDisplay:10.37,2013-05-26 19:59:00,
2013-05-26 16:04:00,66.7,37.4,30.22,SW,225,6.7,9.2,34,0.00,SCT,,0.00,WeatherDisplay:10.37,2013-05-26 20:04:00,
2013-05-26 16:09:00,67.6,38.2,30.22,SSW,202,6.6,9.5,34,0.00,SCT,,0.00,WeatherDisplay:10.37,2013-05-26 20:09:00,
2013-05-26 16:14:00,67.1,37.8,30.22,North,360,8.2,11.2,34,0.00,SCT,,0.00,WeatherDisplay:10.37,2013-05-26 20:14:00,
2013-05-26 16:19:00,66.7,35.9,30.21,NNE,22,8.9,10.4,32,0.00,SCT,,0.00,WeatherDisplay:10.37,2013-05-26 20:19:00,
2013-05-26 16:24:00,67.3,38.7,30.21,WSW,248,7.2,11.5,35,0.00,SCT,,0.00,WeatherDisplay:10.37,2013-05-26 20:24:00,
2013-05-26 16:29:00,67.8,38.4,30.21,WSW,248,6.9,9.2,34,0.00,SCT,,0.00,WeatherDisplay:10.37,2013-05-26 20:29:00,
2013-05-26 16:34:00,65.8,36.6,30.21,NNW,338,4.1,9.2,34,0.00,SCT,,0.00,WeatherDisplay:10.37,2013-05-26 20:34:00,
2013-05-26 16:39:00,67.3,38.0,30.21,SSW,202,10.2,13.8,34,0.00,SCT,,0.00,WeatherDisplay:10.37,2013-05-26 20:39:00,
2013-05-26 16:44:00,67.5,36.6,30.21,NE,45,5.5,9.5,32,0.00,SCT,,0.00,WeatherDisplay:10.37,2013-05-26 20:44:00,
2013-05-26 16:49:00,67.5,37.4,30.21,SSW,202,9.1,12.9,33,0.00,SCT,,0.00,WeatherDisplay:10.37,2013-05-26 20:49:00,
2013-05-26 16:54:00,68.4,36.6,30.20,NE,45,14.0,15.4,31,0.00,SCT,,0.00,WeatherDisplay:10.37,2013-05-26 20:54:00,
2013-05-26 16:59:00,67.3,35.6,30.20,West,270,6.8,9.2,31,0.00,SCT,,0.00,WeatherDisplay:10.37,2013-05-26 20:59:00,
2013-05-26 17:04:00,67.1,36.2,30.20,West,270,7.1,9.2,32,0.00,SKC,,0.00,WeatherDisplay:10.37,2013-05-26 21:04:00,
2013-05-26 17:09:00,66.7,36.7,30.20,WNW,292,10.8,13.8,33,0.00,SKC,,0.00,WeatherDisplay:10.37,2013-05-26 21:09:00,
2013-05-26 17:14:00,66.7,35.9,30.20,SW,225,6.7,9.2,32,0.00,SKC,,0.00,WeatherDisplay:10.37,2013-05-26 21:14:00,
2013-05-26 17:19:00,66.2,35.4,30.20,SW,225,3.7,11.5,32,0.00,SKC,,0.00,WeatherDisplay:10.37,2013-05-26 21:19:00,
2013-05-26 17:24:00,67.3,38.0,30.20,NE,45,4.0,7.8,34,0.00,SKC,,0.00,WeatherDisplay:10.37,2013-05-26 21:24:00,
2013-05-26 17:29:00,67.1,37.0,30.20,NW,315,5.8,12.7,33,0.00,SKC,,0.00,WeatherDisplay:10.37,2013-05-26 21:29:00,
2013-05-26 17:34:00,67.5,37.4,30.20,West,270,7.6,10.4,33,0.00,SKC,,0.00,WeatherDisplay:10.37,2013-05-26 21:34:00,
2013-05-26 17:39:00,69.4,36.6,30.20,ENE,68,7.7,9.5,30,0.00,SKC,,0.00,WeatherDisplay:10.37,2013-05-26 21:39:00,
2013-05-26 17:44:00,69.6,36.8,30.20,NW,315,12.1,12.1,30,0.00,SKC,,0.00,WeatherDisplay:10.37,2013-05-26 21:44:00,
2013-05-26 17:49:00,68.7,37.6,30.20,NNW,338,5.5,7.0,32,0.00,SKC,,0.00,WeatherDisplay:10.37,2013-05-26 21:49:00,
2013-05-26 17:54:00,67.6,38.2,30.20,WSW,248,5.0,11.5,34,0.00,SKC,,0.00,WeatherDisplay:10.37,2013-05-26 21:54:00,
2013-05-26 17:59:00,67.6,37.5,30.20,North,360,7.0,11.5,33,0.00,SKC,,0.00,WeatherDisplay:10.37,2013-05-26 21:59:00,
2013-05-26 18:04:00,66.9,36.1,30.19,North,360,7.6,9.5,32,0.00,SKC,,0.00,WeatherDisplay:10.37,2013-05-26 22:04:00,
2013-05-26 18:09:00,66.7,37.4,30.19,NE,45,10.2,13.8,34,0.00,SKC,,0.00,WeatherDisplay:10.37,2013-05-26 22:09:00,
2013-05-26 18:14:00,66.4,37.2,30.19,West,270,6.6,10.4,34,0.00,SKC,,0.00,WeatherDisplay:10.37,2013-05-26 22:14:00,
2013-05-26 18:19:00,66.4,38.6,30.19,NNE,22,5.7,9.2,36,0.00,SKC,,0.00,WeatherDisplay:10.37,2013-05-26 22:19:00,
2013-05-26 18:24:00,66.7,37.4,30.19,NE,45,5.8,9.2,34,0.00,SKC,,0.00,WeatherDisplay:10.37,2013-05-26 22:24:00,
2013-05-26 18:29:00,66.6,37.3,30.19,North,360,4.1,6.9,34,0.00,SKC,,0.00,WeatherDisplay:10.37,2013-05-26 22:29:00,
2013-05-26 18:34:00,66.4,37.9,30.19,NE,45,3.1,5.8,35,0.00,SCT,,0.00,WeatherDisplay:10.37,2013-05-26 22:34:00,
2013-05-26 18:39:00,66.2,39.1,30.19,NNE,22,3.1,4.6,37,0.00,SCT,,0.00,WeatherDisplay:10.37,2013-05-26 22:39:00,
2013-05-26 18:44:00,66.4,37.9,30.19,ESE,112,5.1,8.1,35,0.00,SCT,,0.00,WeatherDisplay:10.37,2013-05-26 22:44:00,
2013-05-26 18:49:00,66.2,37.7,30.19,West,270,5.3,5.8,35,0.00,SCT,,0.00,WeatherDisplay:10.37,2013-05-26 22:49:00,
2013-05-26 18:54:00,66.0,37.5,30.19,NE,45,4.0,9.2,35,0.00,SCT,,0.00,WeatherDisplay:10.37,2013-05-26 22:54:00,
2013-05-26 18:59:00,65.8,38.1,30.19,SW,225,4.8,6.1,36,0.00,SCT,,0.00,WeatherDisplay:10.37,2013-05-26 22:59:00,
2013-05-26 19:04:00,66.4,38.6,30.19,East,90,2.8,5.8,36,0.00,SCT,,0.00,WeatherDisplay:10.37,2013-05-26 23:04:00,
2013-05-26 19:09:00,66.0,39.0,30.19,ESE,112,3.2,4.6,37,0.00,SCT,,0.00,WeatherDisplay:10.37,2013-05-26 23:09:00,
2013-05-26 19:14:00,65.8,38.8,30.19,WSW,248,3.7,4.6,37,0.00,SCT,,0.00,WeatherDisplay:10.37,2013-05-26 23:14:00,
2013-05-26 19:19:00,65.5,37.8,30.19,West,270,3.6,7.0,36,0.00,SCT,,0.00,WeatherDisplay:10.37,2013-05-26 23:19:00,
2013-05-26 19:24:00,65.1,38.2,30.19,WSW,248,3.4,8.1,37,0.00,SCT,,0.00,WeatherDisplay:10.37,2013-05-26 23:24:00,
2013-05-26 19:29:00,64.8,39.9,30.19,North,360,0.6,4.6,40,0.00,SCT,,0.00,WeatherDisplay:10.37,2013-05-26 23:29:00,
2013-05-26 19:34:00,64.0,39.2,30.19,WSW,248,0.5,3.5,40,0.00,SCT,,0.00,WeatherDisplay:10.37,2013-05-26 23:34:00,
2013-05-26 19:39:00,64.0,40.4,30.19,NW,315,2.5,3.6,42,0.00,SCT,,0.00,WeatherDisplay:10.37,2013-05-26 23:39:00,
2013-05-26 19:44:00,63.0,39.5,30.19,NNE,22,2.8,3.6,42,0.00,SCT,,0.00,WeatherDisplay:10.37,2013-05-26 23:44:00,
2013-05-26 19:49:00,62.4,39.0,30.19,NNE,22,0.0,0.0,42,0.00,SCT,,0.00,WeatherDisplay:10.37,2013-05-26 23:49:00,
2013-05-26 19:54:00,61.9,37.9,30.19,NNE,22,0.0,0.0,41,0.00,SCT,,0.00,WeatherDisplay:10.37,2013-05-26 23:54:00,
2013-05-26 19:59:00,61.3,39.2,30.19,NNE,22,0.0,0.0,44,0.00,SCT,,0.00,WeatherDisplay:10.37,2013-05-26 23:59:00,
2013-05-26 20:04:00,60.3,38.9,30.19,NNE,22,0.0,0.0,45,0.00,SCT,,0.00,WeatherDisplay:10.37,2013-05-27 00:04:00,
2013-05-26 20:09:00,59.2,39.0,30.19,NNE,22,1.0,1.9,47,0.00,SCT,,0.00,WeatherDisplay:10.37,2013-05-27 00:09:00,
2013-05-26 20:14:00,58.6,40.5,30.19,NNE,22,2.4,2.7,51,0.00,SCT,,0.00,WeatherDisplay:10.37,2013-05-27 00:14:00,
2013-05-26 20:19:00,57.7,40.7,30.19,NNE,22,1.7,2.3,53,0.00,SCT,,0.00,WeatherDisplay:10.37,2013-05-27 00:19:00,
2013-05-26 20:24:00,57.0,40.0,30.19,NNE,22,0.0,2.3,53,0.00,SCT,,0.00,WeatherDisplay:10.37,2013-05-27 00:24:00,
2013-05-26 20:29:00,56.5,40.0,30.19,NNE,22,0.0,2.3,54,0.00,SCT,,0.00,WeatherDisplay:10.37,2013-05-27 00:29:00,
2013-05-26 20:34:00,55.6,40.6,30.19,NNE,22,0.0,0.0,57,0.00,SCT,,0.00,WeatherDisplay:10.37,2013-05-27 00:34:00,
2013-05-26 20:39:00,54.9,39.9,30.19,NNE,22,0.0,0.0,57,0.00,SCT,,0.00,WeatherDisplay:10.37,2013-05-27 00:39:00,
2013-05-26 20:44:00,53.6,40.0,30.19,NNE,22,0.0,0.0,60,0.00,SCT,,0.00,WeatherDisplay:10.37,2013-05-27 00:44:00,
2013-05-26 20:49:00,53.1,39.6,30.19,NNE,22,0.0,0.0,60,0.00,SCT,,0.00,WeatherDisplay:10.37,2013-05-27 00:49:00,
2013-05-26 20:54:00,52.5,39.8,30.20,NNE,22,0.0,0.0,62,0.00,SCT,,0.00,WeatherDisplay:10.37,2013-05-27 00:54:00,
2013-05-26 20:59:00,52.3,40.5,30.20,NNE,22,0.0,0.0,64,0.00,SCT,,0.00,WeatherDisplay:10.37,2013-05-27 00:59:00,
2013-05-26 21:04:00,52.0,40.2,30.19,NNE,22,0.0,0.0,64,0.00,SCT,,0.00,WeatherDisplay:10.37,2013-05-27 01:04:00,
2013-05-26 21:09:00,51.6,39.8,30.19,NNE,22,0.0,0.0,64,0.00,SCT,,0.00,WeatherDisplay:10.37,2013-05-27 01:09:00,
2013-05-26 21:14:00,51.3,39.1,30.19,NNE,22,0.0,0.0,63,0.00,SCT,,0.00,WeatherDisplay:10.37,2013-05-27 01:14:00,
2013-05-26 21:19:00,50.7,39.7,30.20,NNE,22,0.0,0.0,66,0.00,SCT,,0.00,WeatherDisplay:10.37,2013-05-27 01:19:00,
2013-05-26 21:24:00,50.2,40.0,30.20,NNE,22,0.0,0.0,68,0.00,SCT,,0.00,WeatherDisplay:10.37,2013-05-27 01:24:00,
2013-05-26 21:29:00,49.6,39.5,30.20,NNE,22,0.0,0.0,68,0.00,SCT,,0.00,WeatherDisplay:10.37,2013-05-27 01:29:00,
2013-05-26 21:34:00,49.1,39.0,30.20,NNE,22,0.0,0.0,68,0.00,SCT,,0.00,WeatherDisplay:10.37,2013-05-27 01:34:00,
2013-05-26 21:39:00,48.7,39.7,30.21,NNE,22,0.0,0.0,71,0.00,SCT,,0.00,WeatherDisplay:10.37,2013-05-27 01:39:00,
2013-05-26 21:44:00,48.6,39.3,30.21,NNE,22,0.0,0.0,70,0.00,SCT,,0.00,WeatherDisplay:10.37,2013-05-27 01:44:00,
2013-05-26 21:49:00,48.6,38.9,30.21,NNE,22,0.0,0.0,69,0.00,SCT,,0.00,WeatherDisplay:10.37,2013-05-27 01:49:00,
2013-05-26 21:54:00,48.2,38.9,30.21,NNE,22,0.0,0.0,70,0.00,SCT,,0.00,WeatherDisplay:10.37,2013-05-27 01:54:00,
2013-05-26 21:59:00,48.0,39.4,30.21,NNE,22,0.0,0.0,72,0.00,SCT,,0.00,WeatherDisplay:10.37,2013-05-27 01:59:00,
2013-05-26 22:04:00,47.8,39.6,30.21,NNE,22,0.0,0.0,73,0.00,SCT,,0.00,WeatherDisplay:10.37,2013-05-27 02:04:00,
2013-05-26 22:09:00,47.5,40.3,30.21,NNE,22,0.0,0.0,76,0.00,SCT,,0.00,WeatherDisplay:10.37,2013-05-27 02:09:00,
2013-05-26 22:14:00,46.9,39.7,30.21,NNE,22,0.0,0.0,76,0.00,SCT,,0.00,WeatherDisplay:10.37,2013-05-27 02:14:00,
2013-05-26 22:19:00,46.9,40.4,30.22,NNE,22,0.0,0.0,78,0.00,SCT,,0.00,WeatherDisplay:10.37,2013-05-27 02:19:00,
2013-05-26 22:24:00,46.6,40.4,30.22,NNE,22,0.0,0.0,79,0.00,SCT,,0.00,WeatherDisplay:10.37,2013-05-27 02:24:00,
2013-05-26 22:29:00,46.2,39.7,30.23,NNE,22,0.0,0.0,78,0.00,SCT,,0.00,WeatherDisplay:10.37,2013-05-27 02:29:00,
2013-05-26 22:34:00,45.9,40.4,30.23,NNE,22,0.0,0.0,81,0.00,SCT,,0.00,WeatherDisplay:10.37,2013-05-27 02:34:00,
2013-05-26 22:39:00,46.0,40.2,30.22,NNE,22,0.0,0.0,80,0.00,SCT,,0.00,WeatherDisplay:10.37,2013-05-27 02:39:00,
2013-05-26 22:44:00,46.0,40.2,30.22,NNE,22,0.0,0.0,80,0.00,SCT,,0.00,WeatherDisplay:10.37,2013-05-27 02:44:00,
2013-05-26 22:49:00,45.7,40.5,30.22,NNE,22,0.0,0.0,82,0.00,SCT,,0.00,WeatherDisplay:10.37,2013-05-27 02:49:00,
2013-05-26 22:54:00,45.3,40.7,30.23,NNE,22,0.0,0.0,84,0.00,SCT,,0.00,WeatherDisplay:10.37,2013-05-27 02:54:00,
2013-05-26 22:59:00,45.1,40.6,30.23,NNE,22,0.0,0.0,84,0.00,SCT,,0.00,WeatherDisplay:10.37,2013-05-27 02:59:00,
2013-05-26 23:04:00,45.0,40.5,30.24,NNE,22,0.0,0.0,84,0.00,SCT,,0.00,WeatherDisplay:10.37,2013-05-27 03:04:00,
2013-05-26 23:09:00,45.0,40.8,30.24,NNE,22,0.0,0.0,85,0.00,SCT,,0.00,WeatherDisplay:10.37,2013-05-27 03:09:00,
2013-05-26 23:14:00,44.6,40.7,30.24,NNE,22,0.0,0.0,86,0.00,SCT,,0.00,WeatherDisplay:10.37,2013-05-27 03:14:00,
2013-05-26 23:19:00,44.1,40.8,30.24,NNE,22,0.0,0.0,88,0.00,SCT,,0.00,WeatherDisplay:10.37,2013-05-27 03:19:00,
2013-05-26 23:24:00,44.1,40.8,30.24,NNE,22,0.0,0.0,88,0.00,SCT,,0.00,WeatherDisplay:10.37,2013-05-27 03:24:00,
2013-05-26 23:29:00,43.7,41.0,30.24,NNE,22,0.0,0.0,90,0.00,SCT,,0.00,WeatherDisplay:10.37,2013-05-27 03:29:00,
2013-05-26 23:34:00,43.7,41.0,30.24,NNE,22,0.0,0.0,90,0.00,SCT,,0.00,WeatherDisplay:10.37,2013-05-27 03:34:00,
2013-05-26 23:39:00,43.7,40.7,30.24,NNE,22,0.0,0.0,89,0.00,SCT,,0.00,WeatherDisplay:10.37,2013-05-27 03:39:00,
2013-05-26 23:44:00,43.5,40.5,30.24,NNE,22,0.0,0.0,89,0.00,SCT,,0.00,WeatherDisplay:10.37,2013-05-27 03:44:00,
2013-05-26 23:49:00,43.3,40.6,30.24,NNE,22,0.0,0.0,90,0.00,SCT,,0.00,WeatherDisplay:10.37,2013-05-27 03:49:00,
2013-05-26 23:54:00,43.3,40.3,30.24,NNE,22,0.0,0.0,89,0.00,SCT,,0.00,WeatherDisplay:10.37,2013-05-27 03:54:00,
2013-05-26 23:59:00,43.2,40.2,30.24,NNE,22,0.0,0.0,89,0.00,SCT,,0.00,WeatherDisplay:10.37,2013-05-27 03:59:00,